Gaithersburg, MD

2:17 PM EDT on September 27, 2016 (GMT -0400)
Montgomery County

Weather History for KGAI - February, 2014

Change the Weather History Date:

Thursday, February 27, 2014

  Actual Average (KCGS) Record (KCGS)
Temperature  
Mean Temperature 24 °F -  
Max Temperature 35 °F 46 °F 70 °F (1961)
Min Temperature 14 °F 27 °F 10 °F (1963)
Degree Days  
Heating Degree Days 40    
Moisture  
Dew Point 6 °F    
Average Humidity 50    
Maximum Humidity 79    
Minimum Humidity 27    
Precipitation  
Precipitation 0.00 in - - ()
Sea Level Pressure  
Sea Level Pressure 29.84 in    
Wind  
Wind Speed 6 mph (WNW)    
Max Wind Speed 26 mph    
Max Gust Speed 38 mph    
Visibility 10 miles    
Events      
Averages and records for this station are not official NWS values.
T = Trace of Precipitation, MM = Missing Value Source: NWS Daily Summary

Daily Weather History Graph

Daily Weather History Graph

Search for Another Location

Airport or City:

Trip Planner

Search our weather history database for the weather conditions in past years. The results will help you decide how hot, cold, wet, or windy it might be!

Date:

Astronomy

Feb. 27, 2014 Rise Set
Actual Time 6:44 AM EST 5:59 PM EST
Civil Twilight 6:17 AM EST 6:25 PM EST
Nautical Twilight 5:46 AM EST 6:57 PM EST
Astronomical Twilight 5:15 AM EST 7:28 PM EST
Moon 5:14 AM EST 4:22 PM EST
Length of Visible Light 12h 08m
Length of Day
11h 14m
Waning Crescent, 4% of the Moon is Illuminated
Feb 27
Waning Crescent
Mar 1
New
Mar 8
First Quarter
Mar 16
Full
Mar 23
Last Quarter

Hourly Weather History & Observations

Time (EST) Temp. Windchill Dew Point Humidity Pressure Visibility Wind Dir Wind Speed Gust Speed Precip Events Conditions
12:15 AM 15.8 °F - 8.6 °F 73% 29.89 in 10.0 mi Calm Calm - N/A   Clear
12:35 AM 15.8 °F - 8.6 °F 73% 29.89 in 10.0 mi Calm Calm - N/A   Clear
12:55 AM 17.6 °F - 6.8 °F 63% 29.88 in 10.0 mi Calm Calm - N/A   Clear
1:15 AM 15.8 °F - 6.8 °F 68% 29.87 in 10.0 mi Calm Calm - N/A   Clear
1:35 AM 17.6 °F 12.3 °F 5.0 °F 58% 29.86 in 10.0 mi ESE 3.5 mph - N/A   Clear
1:55 AM 17.6 °F 12.3 °F 5.0 °F 58% 29.85 in 10.0 mi ESE 3.5 mph - N/A   Clear
2:15 AM 17.6 °F 9.3 °F 3.2 °F 53% 29.84 in 10.0 mi SE 5.8 mph - N/A   Clear
2:35 AM 17.6 °F 10.7 °F 6.8 °F 63% 29.83 in 10.0 mi ESE 4.6 mph - N/A   Clear
2:55 AM 17.6 °F 10.7 °F 5.0 °F 58% 29.82 in 10.0 mi ESE 4.6 mph - N/A   Clear
3:15 AM 15.8 °F 7.2 °F 5.0 °F 62% 29.81 in 10.0 mi SE 5.8 mph - N/A   Clear
3:35 AM 17.6 °F 8.2 °F 5.0 °F 58% 29.79 in 10.0 mi SE 6.9 mph - N/A   Clear
3:55 AM 17.6 °F 9.3 °F 6.8 °F 63% 29.78 in 10.0 mi SE 5.8 mph - N/A   Clear
4:15 AM 17.6 °F 12.3 °F 5.0 °F 58% 29.78 in 10.0 mi SE 3.5 mph - N/A   Clear
4:35 AM 17.6 °F - 5.0 °F 58% 29.77 in 10.0 mi Calm Calm - N/A   Clear
4:55 AM 15.8 °F - 6.8 °F 68% 29.77 in 10.0 mi Calm Calm - N/A   Clear
5:15 AM 15.8 °F - 8.6 °F 73% 29.77 in 5.0 mi Calm Calm - N/A   Scattered Clouds
5:35 AM 15.8 °F - 6.8 °F 68% 29.77 in 10.0 mi Calm Calm - N/A   Partly Cloudy
5:55 AM 14.0 °F - 8.6 °F 79% 29.76 in 10.0 mi Calm Calm - N/A   Clear
6:15 AM 14.0 °F - 8.6 °F 79% 29.75 in 10.0 mi Calm Calm - N/A   Clear
6:35 AM 14.0 °F - 8.6 °F 79% 29.75 in 10.0 mi Calm Calm - N/A   Clear
6:55 AM 15.8 °F - 8.6 °F 73% 29.74 in 10.0 mi Calm Calm - N/A   Clear
7:15 AM 14.0 °F - 8.6 °F 79% 29.74 in 10.0 mi Calm Calm - N/A   Clear
7:35 AM 15.8 °F - 10.4 °F 79% 29.74 in 10.0 mi Calm Calm - N/A   Clear
7:55 AM 17.6 °F - 12.2 °F 79% 29.74 in 10.0 mi Calm Calm - N/A   Scattered Clouds
8:15 AM 19.4 °F 12.8 °F 12.2 °F 74% 29.75 in 10.0 mi WNW 4.6 mph - N/A   Mostly Cloudy
8:35 AM 21.2 °F 16.4 °F 12.2 °F 68% 29.74 in 10.0 mi SW 3.5 mph - N/A   Mostly Cloudy
8:55 AM 24.8 °F 19.1 °F 12.2 °F 59% 29.74 in 10.0 mi SW 4.6 mph - N/A   Partly Cloudy
9:15 AM 26.6 °F 20.0 °F 14.0 °F 59% 29.73 in 10.0 mi WSW 5.8 mph - N/A   Clear
9:35 AM 28.4 °F 20.4 °F 15.8 °F 59% 29.73 in 10.0 mi WSW 8.1 mph - N/A   Clear
9:55 AM 28.4 °F 21.2 °F 14.0 °F 55% 29.72 in 10.0 mi SW 6.9 mph - N/A   Clear
10:15 AM 30.2 °F 21.3 °F 14.0 °F 51% 29.72 in 10.0 mi West 10.4 mph 16.1 mph N/A   Clear
10:35 AM 30.2 °F 21.3 °F 10.4 °F 44% 29.72 in 10.0 mi WSW 10.4 mph - N/A   Partly Cloudy
10:55 AM 30.2 °F 22.6 °F 10.4 °F 44% 29.72 in 10.0 mi West 8.1 mph 19.6 mph N/A   Partly Cloudy
11:15 AM 33.8 °F 23.9 °F 6.8 °F 32% 29.71 in 10.0 mi West 15.0 mph 19.6 mph N/A   Partly Cloudy
11:35 AM 33.8 °F 24.3 °F 6.8 °F 32% 29.72 in 10.0 mi WNW 13.8 mph 23.0 mph N/A   Clear
11:55 AM 33.8 °F 27.0 °F 6.8 °F 32% 29.71 in 10.0 mi WNW 8.1 mph 21.9 mph N/A   Partly Cloudy
12:15 PM 33.8 °F 25.8 °F 8.6 °F 35% 29.71 in 10.0 mi West 10.4 mph 17.3 mph N/A   Partly Cloudy
12:35 PM 33.8 °F 25.8 °F 8.6 °F 35% 29.71 in 10.0 mi NW 10.4 mph 23.0 mph N/A   Partly Cloudy
12:55 PM 33.8 °F 26.4 °F 6.8 °F 32% 29.70 in 10.0 mi NW 9.2 mph 17.3 mph N/A   Partly Cloudy
1:15 PM 35.6 °F 25.5 °F 8.6 °F 33% 29.70 in 10.0 mi NW 17.3 mph 32.2 mph N/A   Clear
1:35 PM 35.6 °F 25.2 °F 8.6 °F 33% 29.71 in 10.0 mi WNW 18.4 mph 27.6 mph N/A   Clear
1:55 PM 33.8 °F 20.8 °F 6.8 °F 32% 29.71 in 10.0 mi WNW 26.5 mph 34.5 mph N/A   Clear
2:15 PM 33.8 °F 22.2 °F 6.8 °F 32% 29.72 in 10.0 mi WNW 20.7 mph 34.5 mph N/A   Clear
2:35 PM 33.8 °F 21.0 °F 5.0 °F 30% 29.73 in 10.0 mi NW 25.3 mph 34.5 mph N/A   Clear
2:55 PM 33.8 °F 22.2 °F 5.0 °F 30% 29.74 in 10.0 mi WNW 20.7 mph 34.5 mph N/A   Clear
3:15 PM 33.8 °F 22.5 °F 5.0 °F 30% 29.76 in 10.0 mi NW 19.6 mph 34.5 mph N/A   Clear
3:35 PM 33.8 °F 23.9 °F 5.0 °F 30% 29.77 in 10.0 mi NW 15.0 mph 31.1 mph N/A   Clear
3:55 PM 33.8 °F 21.6 °F 3.2 °F 28% 29.78 in 10.0 mi West 23.0 mph 34.5 mph N/A   Clear
4:15 PM 33.8 °F 22.2 °F 3.2 °F 28% 29.79 in 10.0 mi WNW 20.7 mph 32.2 mph N/A   Clear
4:35 PM 32.0 °F 20.5 °F 3.2 °F 30% 29.80 in 10.0 mi WNW 18.4 mph 29.9 mph N/A   Clear
4:55 PM 32.0 °F 18.9 °F 1.4 °F 27% 29.81 in 10.0 mi WNW 24.2 mph 33.4 mph N/A   Clear
5:15 PM 30.2 °F 16.5 °F 1.4 °F 29% 29.83 in 10.0 mi West 24.2 mph 38.0 mph N/A   Clear
5:35 PM 30.2 °F 17.1 °F 3.2 °F 32% 29.85 in 10.0 mi WNW 21.9 mph 27.6 mph N/A   Clear
5:55 PM 28.4 °F 15.8 °F 3.2 °F 34% 29.88 in 10.0 mi WNW 18.4 mph 26.5 mph N/A   Clear
6:15 PM 28.4 °F 16.2 °F 3.2 °F 34% 29.89 in 10.0 mi WNW 17.3 mph 26.5 mph N/A   Clear
6:35 PM 28.4 °F 17.5 °F 6.8 °F 40% 29.91 in 10.0 mi NW 13.8 mph 25.3 mph N/A   Clear
6:55 PM 26.6 °F 15.2 °F 6.8 °F 43% 29.92 in 10.0 mi NW 13.8 mph 26.5 mph N/A   Clear
7:15 PM 26.6 °F 14.7 °F 6.8 °F 43% 29.95 in 10.0 mi NW 15.0 mph 24.2 mph N/A   Clear
7:35 PM 24.8 °F 16.1 °F 5.0 °F 43% 29.96 in 10.0 mi NW 8.1 mph 19.6 mph N/A   Clear
7:55 PM 24.8 °F 19.1 °F 3.2 °F 40% 29.99 in 10.0 mi North 4.6 mph 19.6 mph N/A   Clear
8:15 PM 21.2 °F 14.9 °F 6.8 °F 54% 30.01 in 10.0 mi North 4.6 mph - N/A   Clear
8:35 PM 21.2 °F 11.7 °F 6.8 °F 54% 30.02 in 10.0 mi NW 8.1 mph - N/A   Clear
8:55 PM 21.2 °F 12.6 °F 3.2 °F 46% 30.04 in 10.0 mi NW 6.9 mph 17.3 mph N/A   Clear
9:15 PM 19.4 °F 10.4 °F 5.0 °F 54% 30.06 in 10.0 mi North 6.9 mph 18.4 mph N/A   Clear
9:35 PM 19.4 °F 8.6 °F 3.2 °F 49% 30.08 in 10.0 mi North 9.2 mph - N/A   Clear
9:55 PM 17.6 °F 8.2 °F 1.4 °F 49% 30.09 in 10.0 mi NNW 6.9 mph 19.6 mph N/A   Clear
10:15 PM 17.6 °F 10.7 °F 1.4 °F 49% 30.11 in 10.0 mi North 4.6 mph 20.7 mph N/A   Clear
10:35 PM 17.6 °F 7.3 °F -0.4 °F 45% 30.13 in 10.0 mi NNW 8.1 mph - N/A   Clear
10:55 PM 15.8 °F 5.1 °F -0.4 °F 49% 30.14 in 10.0 mi NNW 8.1 mph 21.9 mph N/A   Clear
11:15 PM 15.8 °F 2.7 °F -2.2 °F 45% 30.15 in 10.0 mi NW 11.5 mph 18.4 mph N/A   Clear
11:35 PM 15.8 °F 7.2 °F -2.2 °F 45% 30.16 in 10.0 mi North 5.8 mph - N/A   Clear
11:55 PM 14.0 °F 8.2 °F -2.2 °F 49% 30.18 in 10.0 mi North 3.5 mph 17.3 mph N/A   Clear